Location: Bothwell
(41.7170°N, 112.2589°W)
Time: 11:28:56
(UTC+00:00)

A-11 Canister half - Visible Passes

Search period start: 15 May 2026 00:00
Search period end: 25 May 2026 00:00
Orbit: 1523 x 1685 km, 47.3° (Epoch: 14 May)

Date Brightness Start Highest point End Pass type
(mag) Time Alt. Az. Time Alt. Az. Time Alt. Az.
15 May 9.4 04:03:25 10° WNW 04:13:10 66° N 04:23:12 10° E visible
15 May 9.0 06:08:48 10° WNW 06:18:46 79° SSW 06:22:47 43° SE visible
15 May 10.0 08:14:42 10° WNW 08:21:00 28° WSW 08:21:00 28° WSW visible
16 May 9.5 03:41:31 10° WNW 03:51:14 65° N 04:01:16 10° E visible
16 May 9.0 05:46:56 10° WNW 05:56:54 82° SSW 06:01:33 38° SE visible
16 May 9.9 07:52:44 10° WNW 07:59:47 31° WSW 07:59:47 31° WSW visible
17 May 9.5 03:19:38 10° WNW 03:29:18 65° N 03:39:18 10° E visible
17 May 9.0 05:25:04 10° WNW 05:35:01 84° SSW 05:40:22 33° SE visible
17 May 9.8 07:30:46 10° WNW 07:38:37 33° SW 07:38:37 33° SW visible
18 May 9.5 02:57:45 10° WNW 03:07:23 64° N 03:17:21 10° E visible
18 May 9.1 05:03:12 10° WNW 05:13:07 87° SSW 05:19:16 28° ESE visible
18 May 9.7 07:08:49 10° WNW 07:17:30 35° SW 07:17:31 35° SW visible
19 May 9.1 04:41:21 10° WNW 04:51:14 89° SSW 04:58:13 24° ESE visible
19 May 9.6 06:46:53 10° WNW 06:55:40 37° SW 06:56:28 37° SW visible
20 May 9.1 04:19:29 10° WNW 04:29:21 89° NNE 04:37:13 19° ESE visible
20 May 9.6 06:24:57 10° WNW 06:33:51 39° SW 06:35:28 37° SSW visible
21 May 9.1 03:57:37 10° WNW 04:07:28 87° NNE 04:16:16 15° ESE visible
21 May 9.6 06:03:01 10° WNW 06:12:02 41° SW 06:14:31 36° SSW visible
22 May 9.2 03:35:45 10° WNW 03:45:33 85° NNE 03:55:20 11° ESE visible
22 May 9.6 05:41:07 10° WNW 05:50:12 43° SW 05:53:36 34° S visible
23 May 9.2 03:13:54 10° WNW 03:23:40 83° NNE 03:33:46 10° ESE visible
23 May 9.6 05:19:13 10° WNW 05:28:22 45° SW 05:32:44 30° S visible
23 May 10.8 07:29:58 10° WSW 07:31:00 10° WSW 07:31:00 10° WSW visible
24 May 9.5 04:57:18 10° WNW 05:06:32 47° SW 05:11:54 26° SSE visible
24 May 10.8 07:06:51 10° WSW 07:09:50 12° WSW 07:10:11 12° WSW visible
